User: anonymous   Login
Location: Hancock Field Station
(44.9202°N, 120.4259°W)
Time: 07:21:38
(UTC-08:00)
Language:

Cosmos 1707 - Orbit

View from above orbital plane
View from above orbital plane
View from above satellite
View from above satellite

Ground track
Ground track

The orbit data is extracted from the following two-line orbital elements,

1 16326U 85113A   16343.24892967  .00000779  00000-0  42356-4 0  9997
2 16326  82.5121  35.8755 0009414 236.1339 123.8997 15.13017038688478
Epoch (UTC): 08 December 2016 05:58:27
Eccentricity: 0.0009414
inclination: 82.5121°
perigee height: 520 km
apogee height: 533 km
right ascension of ascending node: 35.8755°
argument of perigee: 236.1339°
revolutions per day: 15.13017038
mean anomaly at epoch: 123.8997°
orbit number at epoch: 68847

The dashed part of the orbit path shows where the satellite is in the earth's shadow,  

DLR